When you browse on this site, cookies collect data to enhance your experience and personalize the content and advertising you see.
Visit our Privacy Policy to learn more. By continuing to use the site, you agree to this use of cookies and data.
  • In Österreich
  • Länderverzeichnis
  • Für 7 Tage
  • Wassertemperatur
  • Wetterkarte
  • News
  • Widgets
  • user-avatar
    Anmelden

    Stündliche Wetter Kulagino

    Heute, 7 Juni, Sonntag

    Zeit Temperatur Niederschläge Wind Luftdruck Luftfeuchtigkeit
    00:00 +18°C° 0 mm 1 m/S 754 mmHg 84%
    01:00 +15°C° 0 mm 0 m/S 754 mmHg 85%
    02:00 +16°C° 0 mm 1 m/S 755 mmHg 86%
    03:00 +16°C° 0 mm 1 m/S 755 mmHg 86%
    04:00 +15°C° 0 mm 1 m/S 755 mmHg 87%
    05:00 +18°C° 0 mm 1 m/S 755 mmHg 84%
    06:00 +18°C° 0 mm 2 m/S 755 mmHg 81%
    07:00 +19°C° 0 mm 3 m/S 755 mmHg 78%
    08:00 +20°C° 0.1 mm 3 m/S 755 mmHg 73%
    09:00 +22°C° 0.1 mm 3 m/S 755 mmHg 67%
    10:00 +24°C° 0.1 mm 3 m/S 755 mmHg 61%
    11:00 +24°C° 0.9 mm 3 m/S 755 mmHg 63%
    12:00 +22°C° 0.9 mm 3 m/S 755 mmHg 65%
    13:00 +23°C° 0.9 mm 2 m/S 755 mmHg 66%
    14:00 +23°C° 0.3 mm 2 m/S 755 mmHg 70%
    15:00 +21°C° 0.3 mm 2 m/S 755 mmHg 74%
    16:00 +21°C° 0.3 mm 1 m/S 755 mmHg 78%
    17:00 +20°C° 2 mm 1 m/S 755 mmHg 84%
    18:00 +18°C° 2 mm 2 m/S 754 mmHg 90%
    19:00 +17°C° 2 mm 2 m/S 754 mmHg 95%
    20:00 +17°C° 1.4 mm 2 m/S 754 mmHg 96%
    21:00 +17°C° 1.4 mm 2 m/S 755 mmHg 96%
    22:00 +17°C° 1.4 mm 2 m/S 755 mmHg 96%
    23:00 +17°C° 0.3 mm 2 m/S 754 mmHg 96%

    Morgen, 8 Juni, Montag

    Zeit Temperatur Niederschläge Wind Luftdruck Luftfeuchtigkeit
    00:00 +17°C° 0.3 mm 2 m/S 754 mmHg 96%
    01:00 +17°C° 0.3 mm 2 m/S 754 mmHg 96%
    02:00 +17°C° 0.2 mm 2 m/S 754 mmHg 96%
    03:00 +16°C° 0.2 mm 2 m/S 754 mmHg 96%
    04:00 +16°C° 0.2 mm 2 m/S 754 mmHg 95%
    05:00 +17°C° 0.5 mm 3 m/S 754 mmHg 93%
    06:00 +18°C° 0.5 mm 3 m/S 754 mmHg 90%
    07:00 +19°C° 0.5 mm 4 m/S 754 mmHg 87%
    08:00 +20°C° 0.7 mm 4 m/S 754 mmHg 81%
    09:00 +21°C° 0.7 mm 4 m/S 754 mmHg 76%
    10:00 +22°C° 0.7 mm 4 m/S 754 mmHg 70%
    11:00 +22°C° 1.1 mm 4 m/S 754 mmHg 66%
    12:00 +23°C° 1.1 mm 5 m/S 754 mmHg 62%
    13:00 +25°C° 1.1 mm 5 m/S 754 mmHg 58%
    14:00 +25°C° 1.1 mm 4 m/S 754 mmHg 59%
    15:00 +25°C° 1.1 mm 4 m/S 754 mmHg 60%
    16:00 +25°C° 1.1 mm 4 m/S 754 mmHg 61%
    17:00 +23°C° 0.8 mm 4 m/S 754 mmHg 66%
    18:00 +22°C° 0.8 mm 4 m/S 754 mmHg 71%
    19:00 +21°C° 0.8 mm 4 m/S 754 mmHg 75%
    20:00 +20°C° 0.9 mm 4 m/S 754 mmHg 77%
    21:00 +19°C° 0.9 mm 3 m/S 754 mmHg 79%
    22:00 +18°C° 0.9 mm 3 m/S 754 mmHg 81%
    23:00 +18°C° 0.2 mm 3 m/S 754 mmHg 79%

    übermorgen, 9 Juni, Dienstag

    Zeit Temperatur Niederschläge Wind Luftdruck Luftfeuchtigkeit
    00:00 +18°C° 0.2 mm 3 m/S 754 mmHg 76%
    01:00 +18°C° 0.2 mm 3 m/S 754 mmHg 73%
    02:00 +18°C° 0 mm 3 m/S 755 mmHg 71%
    03:00 +17°C° 0 mm 4 m/S 755 mmHg 70%
    04:00 +17°C° 0 mm 4 m/S 755 mmHg 69%
    05:00 +17°C° 0 mm 4 m/S 755 mmHg 68%
    06:00 +17°C° 0 mm 5 m/S 756 mmHg 67%
    07:00 +17°C° 0 mm 5 m/S 756 mmHg 66%
    08:00 +20°C° 0 mm 5 m/S 756 mmHg 63%
    09:00 +22°C° 0 mm 5 m/S 757 mmHg 59%
    10:00 +23°C° 0 mm 6 m/S 757 mmHg 56%
    11:00 +26°C° 0 mm 6 m/S 757 mmHg 50%
    12:00 +27°C° 0 mm 6 m/S 757 mmHg 45%
    13:00 +29°C° 0 mm 6 m/S 757 mmHg 40%
    14:00 +28°C° 0 mm 5 m/S 757 mmHg 41%
    15:00 +28°C° 0 mm 5 m/S 757 mmHg 43%
    16:00 +28°C° 0 mm 4 m/S 757 mmHg 45%
    17:00 +27°C° 0 mm 4 m/S 757 mmHg 49%
    18:00 +25°C° 0 mm 4 m/S 757 mmHg 54%
    19:00 +23°C° 0 mm 4 m/S 757 mmHg 58%
    20:00 +22°C° 0 mm 4 m/S 757 mmHg 59%
    21:00 +22°C° 0 mm 4 m/S 757 mmHg 59%
    22:00 +21°C° 0 mm 4 m/S 757 mmHg 60%
    23:00 +21°C° 0 mm 4 m/S 757 mmHg 57%

    10 Juni, Mittwoch

    Zeit Temperatur Niederschläge Wind Luftdruck Luftfeuchtigkeit
    00:00 +21°C° 0 mm 4 m/S 758 mmHg 54%
    01:00 +21°C° 0 mm 4 m/S 758 mmHg 51%
    02:00 +21°C° 0 mm 4 m/S 758 mmHg 51%
    03:00 +20°C° 0 mm 5 m/S 758 mmHg 52%
    04:00 +20°C° 0 mm 5 m/S 758 mmHg 52%
    05:00 +20°C° 0 mm 5 m/S 758 mmHg 55%
    06:00 +20°C° 0 mm 5 m/S 758 mmHg 58%
    07:00 +20°C° 0 mm 5 m/S 758 mmHg 61%
    08:00 +21°C° 0 mm 5 m/S 758 mmHg 59%
    09:00 +23°C° 0 mm 5 m/S 758 mmHg 57%
    10:00 +25°C° 0 mm 4 m/S 758 mmHg 55%
    11:00 +27°C° 0 mm 4 m/S 759 mmHg 50%
    12:00 +28°C° 0 mm 4 m/S 759 mmHg 45%
    13:00 +29°C° 0 mm 4 m/S 759 mmHg 41%
    14:00 +29°C° 0 mm 4 m/S 758 mmHg 42%
    15:00 +29°C° 0 mm 4 m/S 758 mmHg 43%
    16:00 +29°C° 0 mm 3 m/S 758 mmHg 44%
    17:00 +28°C° 0 mm 3 m/S 758 mmHg 48%
    18:00 +27°C° 0 mm 3 m/S 758 mmHg 51%
    19:00 +26°C° 0 mm 3 m/S 757 mmHg 54%
    20:00 +25°C° 0 mm 3 m/S 757 mmHg 55%
    21:00 +24°C° 0 mm 3 m/S 757 mmHg 55%
    22:00 +22°C° 0 mm 4 m/S 757 mmHg 55%
    23:00 +22°C° 0 mm 4 m/S 757 mmHg 55%

    11 Juni, Donnerstag

    Zeit Temperatur Niederschläge Wind Luftdruck Luftfeuchtigkeit
    00:00 +21°C° 0 mm 3 m/S 757 mmHg 56%
    01:00 +21°C° 0 mm 3 m/S 757 mmHg 56%
    02:00 +21°C° 0 mm 3 m/S 757 mmHg 57%
    03:00 +20°C° 0 mm 3 m/S 757 mmHg 58%
    04:00 +20°C° 0 mm 2 m/S 757 mmHg 59%
    05:00 +20°C° 0 mm 3 m/S 757 mmHg 60%
    06:00 +21°C° 0 mm 3 m/S 757 mmHg 61%
    07:00 +21°C° 0 mm 4 m/S 757 mmHg 63%
    08:00 +23°C° 0 mm 4 m/S 757 mmHg 60%
    09:00 +26°C° 0 mm 5 m/S 756 mmHg 57%
    10:00 +28°C° 0 mm 5 m/S 756 mmHg 54%
    11:00 +29°C° 0 mm 5 m/S 756 mmHg 50%
    12:00 +30°C° 0 mm 5 m/S 756 mmHg 46%
    13:00 +32°C° 0 mm 4 m/S 756 mmHg 43%
    14:00 +32°C° 0 mm 4 m/S 756 mmHg 40%
    15:00 +33°C° 0 mm 3 m/S 755 mmHg 38%
    16:00 +33°C° 0 mm 3 m/S 755 mmHg 36%
    17:00 +31°C° 0 mm 3 m/S 755 mmHg 42%
    18:00 +30°C° 0 mm 3 m/S 754 mmHg 47%
    19:00 +28°C° 0 mm 2 m/S 754 mmHg 53%
    20:00 +27°C° 0 mm 3 m/S 754 mmHg 54%
    21:00 +25°C° 0 mm 3 m/S 754 mmHg 55%
    22:00 +24°C° 0 mm 3 m/S 754 mmHg 55%
    23:00 +23°C° 0 mm 2 m/S 754 mmHg 56%

    12 Juni, Freitag

    Zeit Temperatur Niederschläge Wind Luftdruck Luftfeuchtigkeit
    00:00 +21°C° 0 mm 2 m/S 753 mmHg 57%
    01:00 +21°C° 0 mm 2 m/S 753 mmHg 57%
    02:00 +21°C° 0 mm 1 m/S 753 mmHg 59%
    03:00 +21°C° 0 mm 1 m/S 753 mmHg 60%
    04:00 +20°C° 0 mm 1 m/S 752 mmHg 61%
    05:00 +22°C° 0.2 mm 1 m/S 752 mmHg 61%
    06:00 +23°C° 0.2 mm 1 m/S 752 mmHg 61%
    07:00 +24°C° 0.2 mm 1 m/S 752 mmHg 60%
    08:00 +26°C° 0 mm 1 m/S 752 mmHg 55%
    09:00 +28°C° 0 mm 2 m/S 752 mmHg 50%
    10:00 +29°C° 0 mm 2 m/S 752 mmHg 46%
    11:00 +30°C° 0 mm 2 m/S 752 mmHg 43%
    12:00 +31°C° 0 mm 2 m/S 752 mmHg 40%
    13:00 +32°C° 0 mm 2 m/S 751 mmHg 37%
    14:00 +32°C° 0 mm 2 m/S 751 mmHg 36%
    15:00 +32°C° 0 mm 1 m/S 751 mmHg 35%
    16:00 +33°C° 0 mm 1 m/S 750 mmHg 34%
    17:00 +32°C° 0 mm 1 m/S 750 mmHg 38%
    18:00 +31°C° 0 mm 1 m/S 750 mmHg 43%
    19:00 +28°C° 0 mm 0 m/S 750 mmHg 47%
    20:00 +28°C° 0.3 mm 1 m/S 749 mmHg 50%
    21:00 +26°C° 0.3 mm 1 m/S 749 mmHg 53%
    22:00 +24°C° 0.3 mm 1 m/S 749 mmHg 56%
    23:00 +24°C° 0.3 mm 1 m/S 749 mmHg 60%
    Mehr zeigen